This is the latest recevied weather packets stored in our database for station/object NY5V. If no packets are shown the sender has not sent any weather packets the latest 10 day(s).
| Time | Temp. | Humidity | Pressure | Rain* | Wind** | Luminosity | Snow |
|---|---|---|---|---|---|---|---|
| 1777420183 | 26.11° C | 85% | 1011 hPa | 0 mm | - | 3 W/m² | - |
| 1777419581 | 26.67° C | 84% | 1011.1 hPa | 0 mm | - | 4 W/m² | - |
| 1777418977 | 26.67° C | 83% | 1011.3 hPa | 0 mm | - | 5 W/m² | - |
| 1777418375 | 26.67° C | 82% | 1011.7 hPa | 0 mm | - | 3 W/m² | - |
| 1777417773 | 27.22° C | 81% | 1011.7 hPa | 0 mm | - | 4 W/m² | - |
| 1777417171 | 27.22° C | 80% | 1011.4 hPa | 0 mm | - | 3 W/m² | - |
| 1777416568 | 27.78° C | 78% | 1011 hPa | 0 mm | - | 4 W/m² | - |
| 1777415964 | 27.78° C | 78% | 1010.9 hPa | 0 mm | - | 5 W/m² | - |
| 1777415361 | 27.22° C | 80% | 1010.6 hPa | 0 mm | - | 6 W/m² | - |
| 1777414761 | 27.22° C | 80% | 1009.9 hPa | 0 mm | - | 11 W/m² | - |
| 1777414162 | 27.78° C | 79% | 1009.6 hPa | 0 mm | - | 29 W/m² | - |
| 1777413559 | 27.78° C | 79% | 1009.7 hPa | 0 mm | - | 20 W/m² | - |
| 1777412957 | 27.78° C | 78% | 1009.5 hPa | 0 mm | - | 41 W/m² | - |
| 1777412354 | 27.78° C | 77% | 1009.5 hPa | 0 mm | - | 62 W/m² | - |
| 1777411755 | 27.78° C | 77% | 1009.8 hPa | 0 mm | - | 64 W/m² | - |
| 1777411150 | 28.33° C | 77% | 1010.1 hPa | 0 mm | - | 49 W/m² | - |
| 1777410549 | 28.33° C | 76% | 1010 hPa | 0 mm | - | 74 W/m² | - |
| 1777409949 | 28.33° C | 74% | 1010.6 hPa | 0 mm | - | 90 W/m² | - |
| 1777409347 | 28.33° C | 77% | 1010.5 hPa | 0 mm | - | 117 W/m² | - |
| 1777408745 | 28.33° C | 77% | 1010.6 hPa | 0 mm | - | 138 W/m² | - |
| 1777408142 | 28.33° C | 76% | 1010.7 hPa | 0 mm | - | 141 W/m² | - |
| 1777407541 | 28.33° C | 76% | 1011.3 hPa | 0 mm | - | 173 W/m² | - |
| 1777406935 | 27.78° C | 76% | 1011.6 hPa | 0 mm | - | 160 W/m² | - |
| 1777406332 | 27.78° C | 77% | 1012.2 hPa | 0 mm | - | 120 W/m² | - |
| 1777405728 | 27.78° C | 75% | 1012.4 hPa | 0 mm | - | 173 W/m² | - |
* Rain latest hour (hover to see other rain measurements)
** Current wind speed in m/s (hover to see current wind gust speed)